TimeCDT,TemperatureF,Dew PointF,Humidity,Sea Level PressureIn,VisibilityMPH,Wind Direction,Wind SpeedMPH,Gust SpeedMPH,PrecipitationIn,Events,Conditions,WindDirDegrees,DateUTC
12:54 AM,54.0,44.1,69,30.18,10.0,South,6.9,-,0.00,,Overcast,180,2013-04-27 05:54:00
1:54 AM,52.0,43.0,71,30.18,10.0,South,5.8,-,N/A,,Partly Cloudy,190,2013-04-27 06:54:00
2:54 AM,51.1,43.0,74,30.17,10.0,South,9.2,-,N/A,,Clear,190,2013-04-27 07:54:00
3:54 AM,48.9,43.0,80,30.17,10.0,SSW,6.9,-,N/A,,Clear,210,2013-04-27 08:54:00
4:54 AM,48.9,43.0,80,30.17,10.0,South,5.8,-,N/A,,Clear,190,2013-04-27 09:54:00
5:54 AM,48.0,43.0,83,30.17,10.0,South,4.6,-,N/A,,Clear,190,2013-04-27 10:54:00
6:54 AM,48.0,44.1,86,30.19,10.0,South,5.8,-,N/A,,Clear,190,2013-04-27 11:54:00
7:54 AM,52.0,46.0,80,30.19,10.0,SSW,9.2,-,N/A,,Clear,210,2013-04-27 12:54:00
8:54 AM,55.9,46.0,69,30.18,10.0,SW,9.2,-,N/A,,Clear,220,2013-04-27 13:54:00
9:54 AM,61.0,46.9,60,30.17,10.0,SW,6.9,-,N/A,,Clear,230,2013-04-27 14:54:00
10:54 AM,64.0,46.0,52,30.16,10.0,WSW,6.9,-,N/A,,Clear,240,2013-04-27 15:54:00
11:54 AM,64.9,46.0,50,30.15,10.0,South,8.1,-,N/A,,Clear,170,2013-04-27 16:54:00
12:54 PM,68.0,45.0,43,30.13,10.0,WSW,6.9,17.3,N/A,,Clear,240,2013-04-27 17:54:00
1:54 PM,71.1,45.0,39,30.11,10.0,South,12.7,-,N/A,,Clear,190,2013-04-27 18:54:00
2:54 PM,72.0,43.0,35,30.08,10.0,SW,8.1,16.1,N/A,,Clear,220,2013-04-27 19:54:00
3:54 PM,72.0,42.1,34,30.06,10.0,SW,11.5,20.7,N/A,,Clear,220,2013-04-27 20:54:00
4:54 PM,70.0,43.0,38,30.05,10.0,SSW,11.5,19.6,N/A,,Partly Cloudy,200,2013-04-27 21:54:00
5:54 PM,68.0,43.0,40,30.04,10.0,SSW,13.8,-,N/A,,Clear,200,2013-04-27 22:54:00
6:54 PM,64.9,43.0,45,30.04,10.0,SSW,11.5,-,N/A,,Clear,210,2013-04-27 23:54:00
7:54 PM,62.1,43.0,50,30.04,10.0,SSW,9.2,-,N/A,,Clear,200,2013-04-28 00:54:00
8:54 PM,57.9,42.1,56,30.04,10.0,South,6.9,-,N/A,,Clear,180,2013-04-28 01:54:00
9:54 PM,55.0,42.1,62,30.04,10.0,South,3.5,-,N/A,,Clear,170,2013-04-28 02:54:00
10:54 PM,51.1,41.0,68,30.03,10.0,South,3.5,-,N/A,,Clear,180,2013-04-28 03:54:00
11:54 PM,48.9,39.9,71,30.02,10.0,South,4.6,-,N/A,,Clear,180,2013-04-28 04:54:00